DEP weather

Daporijo Airport
Daporijo, Arunachal Pradesh, India

Public forecast

Using degrees Celsius for public forecast. Weather courtesy of forecast.io.

METAR (pilot weather report)

Report is more than 2 hours old.

Closest report is Dibrugarh Airport, 51.8 nm (96.0 km) SE. Retrieved 2018/12/18 11:30 UTC (6 hours ago):

VEMN 181130Z 00000KT 1200 RA SCT008 SCT018 FEW025CB OVC090 16/15 Q1015 TEMPO 0800 RA

TAF (pilot weather forecast)

Forecast is more than 12 hours old.

Closest forecast is Jorhat Airport, 75.3 nm (139.5 km) S. Retrieved 2009/10/07 21:00 UTC (9 years ago):

TAF VEJT 072100Z 0800/0809 VRB02KT 2000 RA/HZ SCT015 SCT020 BKN100 BECMG 0804/0806 5000 HZ TEMPO 0800/0809 1500 TSRA SCT010 FEW025CB OVC090